Home > Weather > Carlisle > Past weeks

Flag for United Kingdom Past Weather in Carlisle, England, United Kingdom — Yesterday and Last 2 Weeks

Now
54 °F

Cool.


Feels Like: N/A
Forecast: 45 / 65 °F
Wind: N/A

Location: Carlisle

Current Time: Jul 31, 2016 at 8:20:56 AM

Latest Report: Jul 31, 2016 at 7:00 AM


Visibility: 22 mi

Pressure: 29.97 "Hg

Humidity: 84%

Dew Point: 49 °F

Location of CarlisleLocation

Past Weather in Carlisle — Graph

°F

Carlisle Temperature Yesterday

Maximum temperature yesterday: 62 °F (at 3:00 PM)
Minimum temperature yesterday: 49 °F (at 6:00 AM)
Average temperature yesterday: 57 °F

High & Low Weather Summary for the Past Weeks

 TemperatureHumidityPressure
High87 °F (Jul 19, 5:00 PM)100% (Jul 19, 1:00 AM)30.16 "Hg (Jul 19, 1:00 AM)
Low49 °F (Jul 30, 6:00 AM)42% (Jul 19, 6:00 PM)29.71 "Hg (Jul 20, 11:00 AM)
Average62 °F81%29.99 "Hg
* Reported Jul 16 7:00 AM — Jul 31 7:00 AM, Carlisle, Weather by CustomWeather, © 2016

Note: Actual official high and low records may vary slightly from our data, if they occured in-between our weather recording intervals... More about our weather records

Advertising

Carlisle Weather History for the Previous 24 Hours

Scroll right to see more
 ConditionsComfort  
Time TempWeatherWind HumidityBarometerVisibility
7:00 AM
Sun, Jul 31
54 °FCool.N/A84%29.97 "Hg22 mi
6:00 AM52 °FCool.N/A90%29.97 "Hg22 mi
5:00 AM51 °FCool.N/A90%29.97 "Hg19 mi
4:00 AM52 °FCool.N/A89%29.96 "Hg19 mi
3:00 AM53 °FCool.N/A88%29.96 "Hg22 mi
2:00 AM52 °FCool.N/A88%29.96 "Hg19 mi
1:00 AM54 °FCool.N/A83%29.96 "Hg19 mi
12:00 AM55 °FCool.N/A83%29.96 "Hg22 mi
11:00 PM
Sat, Jul 30
55 °FCool.N/A82%29.96 "Hg22 mi
10:00 PM56 °FCool.N/A79%29.94 "Hg22 mi
9:00 PM59 °FCool.N/A76%29.93 "Hg25 mi
7:00 PM61 °FCool.N/A78%29.91 "Hg22 mi
6:00 PM60 °FCool.N/A80%29.91 "Hg19 mi
5:00 PM62 °FCool.N/A74%29.91 "Hg22 mi
4:00 PM60 °FCool.N/A78%29.91 "Hg7 mi
3:00 PM62 °FCool.N/A70%29.91 "Hg22 mi
2:00 PM61 °FCool.N/A71%29.91 "Hg22 mi
1:00 PM60 °FCool.N/A75%29.91 "Hg22 mi
12:00 PM60 °FCool.N/A77%29.91 "Hg25 mi
11:00 AM59 °FCool.N/A72%29.91 "Hg25 mi
10:00 AM59 °FCool.N/A78%29.91 "Hg25 mi
9:00 AM58 °FCool.N/A83%29.91 "Hg22 mi
8:00 AM56 °FCool.N/A91%29.91 "Hg22 mi
Weather by CustomWeather, © 2016

See weather overviewHow to use our weather pages